CW7706 Weather Reports


time (UTC)temp
F
wind
direction
speed
knots
gust
knots
rain 1hr
in
rain 24hr
in
rain mn
in
humidity
%
barometer
mb
20260506102831 45 351 2.6 4.3 0.00 0.07 0.00 70 1017.5
20260506102331 45 352 2.6 4.3 0.00 0.07 0.00 69 1017.5
20260506101832 45 7 2.6 4.3 0.00 0.07 0.00 68 1017.4
20260506101600 45 354 3.5 4.3 0.00 0.07 0.00 68 1017.4
20260506100829 46 349 3.5 6.1 0.00 0.07 0.00 68 1017.5
20260506100332 46 348 4.3 7.0 0.00 0.07 0.00 67 1017.4
20260506095833 46 305 3.5 7.0 0.00 0.07 0.00 67 1017.4
20260506095605 47 330 4.3 7.0 0.00 0.07 0.00 66 1017.4
20260506094823 47 288 3.5 7.0 0.00 0.07 0.00 65 1017.3
20260506094316 47 358 2.6 3.5 0.00 0.07 0.00 65 1017.4
20260506093811 47 320 1.7 3.5 0.00 0.07 0.00 65 1017.4
20260506093300 47 351 2.6 5.2 0.00 0.07 0.00 65 1017.4
20260506092755 47 350 3.5 5.2 0.00 0.07 0.00 65 1017.3
20260506092249 47 341 3.5 6.1 0.00 0.07 0.00 65 1017.3
20260506091751 47 356 3.5 4.3 0.00 0.07 0.00 64 1017.4
20260506091739 47 337 3.5 6.1 0.00 0.07 0.00 64 1017.3
20260506091404 47 359 2.6 4.3 0.00 0.07 0.00 64 1017.3
20260506090217 48 6 2.6 4.3 0.00 0.07 0.00 63 1017.3
20260506085710 48 331 2.6 5.2 0.00 0.07 0.00 63 1017.3
20260506085205 48 297 2.6 7.0 0.00 0.07 0.00 63 1017.3
20260506084655 48 4 3.5 7.8 0.00 0.07 0.00 62 1017.3
20260506084419 48 1 3.5 7.8 0.00 0.07 0.00 62 1017.3
20260506083914 48 312 3.5 6.1 0.00 0.07 0.00 62 1017.4
20260506083132 48 329 2.6 6.1 0.00 0.07 0.00 61 1017.4
20260506082627 48 317 2.6 6.1 0.00 0.07 0.00 60 1017.5
20260506082121 49 312 3.5 7.0 0.00 0.07 0.00 59 1017.4
20260506081614 49 358 5.2 8.7 0.00 0.07 0.00 59 1017.5
20260506081606 49 335 6.1 8.7 0.00 0.07 0.00 59 1017.4
20260506080559 49 49 6.1 8.7 0.00 0.07 0.00 58 1017.5
20260506073515 49 329 2.6 5.2 0.00 0.07 0.00 59 1017.7
20260506073507 50 316 2.6 5.2 0.00 0.07 0.00 60 1017.7
20260506072459 50 339 3.5 7.8 0.00 0.07 0.00 59 1017.7
20260506072223 51 304 3.5 7.8 0.00 0.07 0.00 60 1017.5
20260506071442 51 343 3.5 6.1 0.00 0.07 0.00 59 1017.7
20260506071207 51 352 3.5 6.1 0.00 0.07 0.00 58 1017.4
20260506070438 52 344 3.5 7.0 0.00 0.07 0.00 58 1017.5
20260506070204 52 2 3.5 7.0 0.00 0.07 0.07 57 1017.5
20260506062435 53 325 3.5 7.0 0.00 0.07 0.07 56 1017.5
20260506061931 53 341 6.1 9.6 0.00 0.07 0.07 55 1017.5
20260506061431 53 338 6.1 10.4 0.00 0.07 0.07 55 1017.4
20260506060931 53 15 3.5 10.4 0.00 0.07 0.07 55 1017.4
20260506060432 53 16 3.5 8.7 0.00 0.07 0.07 54 1017.4
20260506060203 53 352 4.3 9.6 0.00 0.07 0.07 54 1017.4
20260506050923 55 250 3.5 9.6 0.00 0.07 0.07 50 1017.1
20260506050423 55 11 3.5 9.6 0.00 0.07 0.07 50 1017.1
20260506044924 56 308 5.2 10.4 0.00 0.07 0.07 49 1017.0
20260506044422 56 318 5.2 10.4 0.00 0.07 0.07 48 1016.8
20260506044146 56 349 5.2 11.3 0.00 0.07 0.07 47 1016.7
20260506043411 56 335 5.2 11.3 0.00 0.07 0.07 47 1016.8
20260506042912 56 129 6.1 14.8 0.00 0.07 0.07 46 1016.7
20260506042411 56 273 6.1 14.8 0.00 0.07 0.07 46 1016.7
20260506041910 57 322 5.2 13.9 0.00 0.07 0.07 46 1016.7
20260506041412 57 292 5.2 13.9 0.00 0.07 0.07 45 1016.6
20260506040911 57 339 4.3 13.9 0.00 0.07 0.07 45 1016.6
20260506040411 57 338 5.2 13.0 0.00 0.07 0.07 44 1016.6
20260506035910 57 245 7.0 13.0 0.00 0.07 0.07 44 1016.5
20260506035411 57 301 7.0 14.8 0.00 0.07 0.07 44 1016.6
20260506034910 58 283 6.1 14.8 0.00 0.07 0.07 43 1016.5
20260506034411 58 281 5.2 12.2 0.00 0.07 0.07 44 1016.6
20260506033912 58 324 5.2 12.2 0.00 0.07 0.07 43 1016.2
20260506033412 58 212 6.1 11.3 0.00 0.07 0.07 43 1016.2
20260506032912 58 353 5.2 11.3 0.00 0.07 0.07 44 1016.2
20260506032647 58 320 5.2 10.4 0.00 0.07 0.07 44 1016.0
20260506031909 58 293 5.2 12.2 0.00 0.07 0.07 44 1016.0
20260506031409 58 260 5.2 12.2 0.00 0.07 0.07 44 1015.9
20260506030910 59 347 5.2 13.0 0.00 0.07 0.07 44 1015.8
20260506030410 59 348 3.5 13.0 0.00 0.07 0.07 45 1015.7
20260506030146 59 309 3.5 10.4 0.00 0.07 0.07 45 1015.5
20260506025409 59 308 3.5 10.4 0.00 0.07 0.07 45 1015.5
20260506024910 59 160 4.3 12.2 0.00 0.07 0.07 45 1015.5
20260506024410 60 187 7.0 13.9 0.00 0.07 0.07 44 1015.4
20260506024143 60 335 7.8 15.6 0.00 0.07 0.07 44 1015.3
20260506023408 60 18 8.7 15.6 0.00 0.07 0.07 44 1015.5
20260506022908 60 346 7.0 14.8 0.00 0.07 0.07 43 1015.2
20260506022410 60 17 6.1 13.0 0.00 0.07 0.07 43 1015.1
20260506021908 60 344 6.1 13.9 0.00 0.07 0.07 43 1015.1
20260506021409 61 353 7.8 19.1 0.00 0.07 0.07 42 1015.0
20260506020905 61 15 8.7 19.1 0.00 0.07 0.07 42 1014.8
20260506020406 61 343 7.8 17.4 0.00 0.07 0.07 42 1014.8
20260506015905 62 314 7.0 16.5 0.00 0.07 0.07 42 1014.8
20260506015638 62 358 5.2 13.0 0.00 0.07 0.07 41 1014.6
20260506015138 62 205 3.5 10.4 0.00 0.07 0.07 42 1014.6
20260506014406 62 266 4.3 13.9 0.00 0.07 0.07 42 1014.5
20260506013906 62 100 4.3 13.9 0.00 0.07 0.07 41 1014.5
20260506013406 63 189 6.1 15.6 0.00 0.07 0.07 40 1014.5
20260506012901 64 335 7.0 15.6 0.00 0.07 0.07 41 1014.6
20260506012400 64 19 7.8 15.6 0.00 0.07 0.07 41 1014.4
20260506011900 65 348 6.1 15.6 0.00 0.07 0.07 39 1014.3
20260506011634 65 283 4.3 12.2 0.00 0.07 0.07 40 1014.3
20260506011538 65 32 6.1 14.8 0.00 0.07 0.07 38 1014.0
20260506010400 66 328 6.1 14.8 0.00 0.07 0.07 39 1014.0
20260506005902 66 296 7.0 18.2 0.00 0.07 0.07 39 1014.0
20260506005629 66 337 7.8 18.2 0.00 0.07 0.07 39 1014.0
20260506005535 66 331 7.0 16.5 0.00 0.07 0.07 38 1013.9
20260506004358 67 7 7.0 16.5 0.00 0.07 0.07 39 1014.0
20260506003856 66 10 5.2 10.4 0.00 0.07 0.07 38 1013.9
20260506003356 67 239 4.3 10.4 0.00 0.07 0.07 38 1013.9
20260506002857 66 17 4.3 13.9 0.00 0.07 0.07 38 1013.9
20260506002351 67 157 4.3 13.9 0.00 0.07 0.07 37 1013.8
20260506001842 66 52 6.1 13.9 0.00 0.07 0.07 39 1013.9
20260506001342 65 187 7.0 16.5 0.00 0.07 0.07 38 1013.7
20260506000844 66 279 7.8 16.5 0.00 0.07 0.07 39 1013.7
20260506000342 66 309 6.1 16.5 0.00 0.07 0.07 37 1013.7
20260505235840 66 203 6.1 14.8 0.00 0.07 0.07 37 1013.7
20260505235342 66 114 6.1 19.1 0.00 0.07 0.07 37 1013.7
20260505234838 66 154 8.7 26.9 0.00 0.07 0.07 37 1013.5
20260505234339 65 129 8.7 26.9 0.00 0.07 0.07 36 1013.5
20260505233840 65 146 9.6 24.3 0.00 0.07 0.07 38 1013.3
20260505233338 65 259 10.4 24.3 0.00 0.07 0.07 37 1013.9
20260505232839 66 142 7.0 23.5 0.00 0.07 0.07 36 1013.7
20260505232339 67 144 6.1 14.8 0.00 0.07 0.07 37 1013.3
20260505231842 67 2 6.1 14.8 0.00 0.07 0.07 38 1013.3
20260505231342 67 325 9.6 26.9 0.00 0.07 0.07 37 1013.4
20260505230835 66 108 9.6 26.9 0.00 0.07 0.07 38 1013.5
20260505230558 65 223 9.6 20.0 0.00 0.07 0.07 38 1013.7
20260505225820 66 183 8.7 20.0 0.00 0.07 0.07 38 1013.9
20260505225314 67 153 6.1 13.0 0.00 0.07 0.07 36 1013.7
20260505224804 67 23 7.0 20.0 0.00 0.07 0.07 35 1013.7
20260505224257 67 206 6.1 20.0 0.00 0.07 0.07 36 1013.7
20260505223751 67 158 7.8 20.9 0.00 0.07 0.07 36 1013.8
20260505223241 67 325 7.8 20.9 0.00 0.07 0.07 35 1014.0
20260505222736 68 294 7.0 18.2 0.00 0.07 0.07 37 1013.9
20260505222229 69 348 7.0 17.4 0.00 0.07 0.07 34 1013.9
20260505221720 68 276 7.0 16.5 0.00 0.07 0.07 35 1014.1
20260505221214 68 110 5.2 14.8 0.00 0.07 0.07 35 1014.0
20260505220708 68 266 4.3 9.6 0.00 0.07 0.07 37 1014.3
20260505220158 68 314 6.1 16.5 0.00 0.07 0.07 36 1014.4
20260505215652 68 61 6.1 16.5 0.00 0.07 0.07 35 1014.0
20260505215154 67 300 4.3 15.6 0.00 0.07 0.07 37 1014.3
20260505214646 67 273 4.3 13.0 0.00 0.07 0.07 36 1014.3
20260505214146 67 262 4.3 13.0 0.00 0.07 0.07 37 1014.4
20260505213647 67 164 4.3 15.6 0.00 0.07 0.07 38 1014.5
20260505213147 67 295 7.0 20.0 0.00 0.07 0.07 38 1014.7
20260505212646 66 172 7.0 20.0 0.00 0.07 0.07 37 1014.6
20260505212146 67 118 7.0 19.1 0.00 0.07 0.07 35 1014.6
20260505211646 67 316 8.7 19.1 0.00 0.07 0.07 36 1014.8
20260505211150 66 154 9.6 20.9 0.00 0.07 0.07 36 1014.8
20260505210917 66 191 7.0 20.9 0.00 0.07 0.07 37 1014.8
20260505210146 66 164 5.2 13.0 0.00 0.07 0.07 39 1014.8
20260505205646 65 3 7.8 20.0 0.00 0.07 0.07 40 1014.8
20260505205146 65 181 10.4 20.0 0.00 0.07 0.07 38 1015.1
20260505204647 66 187 11.3 21.7 0.00 0.07 0.07 36 1015.8
20260505204141 66 338 10.4 21.7 0.00 0.07 0.07 36 1015.3
20260505203636 66 106 7.8 21.7 0.00 0.07 0.07 39 1015.1
20260505203137 65 148 6.1 16.5 0.00 0.07 0.07 42 1015.3
20260505202638 64 85 7.0 21.7 0.00 0.07 0.07 44 1015.2
20260505202137 64 323 7.8 21.7 0.00 0.07 0.07 47 1015.4
20260505201636 64 343 7.8 20.0 0.00 0.07 0.07 48 1015.4
20260505201135 64 108 8.7 20.0 0.00 0.07 0.07 46 1016.0
20260505200636 63 140 7.0 19.1 0.00 0.07 0.07 49 1015.7
20260505200137 65 125 3.5 9.6 0.00 0.07 0.07 49 1015.8
20260505195637 63 166 4.3 9.6 0.00 0.07 0.07 53 1015.8
20260505195135 62 179 4.3 9.6 0.00 0.07 0.07 55 1016.0
20260505194636 62 341 3.5 9.6 0.00 0.07 0.07 53 1016.0
20260505194137 62 304 3.5 9.6 0.00 0.07 0.07 55 1016.1
20260505193636 61 298 3.5 9.6 0.00 0.07 0.07 57 1016.2
20260505193140 61 288 4.3 10.4 0.00 0.07 0.07 57 1016.2
20260505192634 61 232 4.3 11.3 0.00 0.07 0.07 58 1016.2
20260505192125 61 350 4.3 10.4 0.00 0.07 0.07 56 1016.5
20260505191623 62 325 6.1 13.9 0.00 0.07 0.07 55 1016.5
20260505191129 63 315 6.1 13.9 0.00 0.07 0.07 57 1016.4
20260505190627 62 334 5.2 13.9 0.00 0.07 0.07 56 1016.5
20260505190123 62 314 5.2 12.2 0.00 0.07 0.07 56 1016.6
20260505185624 62 90 5.2 12.2 0.00 0.07 0.07 55 1016.7
20260505185124 63 237 5.2 12.2 0.00 0.07 0.07 56 1016.6
20260505184624 63 18 5.2 12.2 0.00 0.07 0.07 55 1016.7
20260505184124 62 285 5.2 12.2 0.00 0.07 0.07 58 1016.6
20260505183856 62 291 4.3 10.4 0.00 0.07 0.07 60 1016.8
20260505183124 61 346 3.5 9.6 0.00 0.07 0.07 58 1016.8
20260505182622 62 235 3.5 7.0 0.00 0.07 0.07 61 1016.8
20260505182123 60 32 3.5 7.0 0.00 0.07 0.07 61 1016.8
20260505181855 59 321 3.5 9.6 0.00 0.07 0.07 66 1017.2
20260505181116 59 227 6.1 19.1 0.00 0.07 0.07 63 1017.2
20260505180614 59 125 5.2 19.1 0.00 0.07 0.07 63 1017.0
20260505180344 59 281 3.5 10.4 0.00 0.07 0.07 65 1017.1
20260505175851 58 165 4.3 12.2 0.00 0.07 0.07 65 1017.0
20260505175116 59 314 4.3 12.2 0.00 0.07 0.07 66 1017.1
20260505174619 57 46 7.8 18.2 0.00 0.07 0.07 66 1016.7
20260505174118 57 146 7.8 18.2 0.00 0.07 0.07 67 1016.7
20260505173849 58 145 5.2 14.8 0.00 0.07 0.07 66 1016.8
20260505173119 58 279 7.0 16.5 0.00 0.07 0.07 67 1016.8
20260505172616 57 231 6.1 16.5 0.00 0.07 0.07 66 1016.6
20260505172114 57 248 4.3 14.8 0.00 0.07 0.07 68 1016.6
20260505171615 58 181 5.2 14.8 0.00 0.07 0.07 65 1017.0
20260505171112 58 300 4.3 13.0 0.00 0.07 0.07 67 1016.7
20260505170613 59 140 4.3 9.6 0.00 0.07 0.07 66 1017.0
20260505170345 58 147 5.2 15.6 0.00 0.07 0.07 69 1016.7
20260505165609 57 206 8.7 20.9 0.00 0.07 0.07 69 1016.7
20260505165111 57 148 10.4 25.2 0.00 0.07 0.07 69 1016.7
20260505164611 56 160 10.4 25.2 0.00 0.07 0.07 67 1016.5
20260505164110 56 165 9.6 21.7 0.00 0.07 0.07 69 1016.6
20260505163610 56 177 5.2 20.0 0.00 0.07 0.07 69 1016.6
20260505163109 57 199 3.5 18.2 0.00 0.07 0.07 69 1016.6
20260505162611 56 343 3.5 18.2 0.00 0.07 0.07 69 1016.5
20260505162109 55 200 4.3 12.2 0.00 0.07 0.07 71 1016.5
20260505161609 55 54 5.2 12.2 0.00 0.07 0.07 71 1016.6
20260505161347 55 320 3.5 12.2 0.00 0.07 0.07 74 1016.7
20260505160611 55 140 3.5 12.2 0.00 0.07 0.07 70 1016.6
20260505160109 55 4 3.5 10.4 0.00 0.07 0.07 70 1016.8
20260505153107 53 4 3.5 8.7 0.00 0.07 0.07 72 1016.6
20260505152842 53 11 3.5 8.7 0.00 0.07 0.07 75 1016.5
20260505152107 53 10 3.5 13.9 0.00 0.07 0.07 74 1016.2
20260505151606 53 351 4.3 13.9 0.00 0.07 0.07 76 1016.2
20260505151106 53 198 3.5 13.0 0.01 0.07 0.07 73 1015.8
20260505150607 53 155 2.6 8.7 0.01 0.07 0.07 75 1015.8
20260505150105 53 46 4.3 10.4 0.03 0.07 0.07 73 1016.4
20260505140559 52 84 2.6 7.0 0.06 0.06 0.06 76 1016.2
20260505140332 52 333 3.5 10.4 0.04 0.04 0.04 75 1016.4
20260505124917 53 157 2.6 5.2 0.00 0.00 0.00 62 1015.2
20260505124411 53 161 2.6 6.1 0.00 0.00 0.00 63 1015.0
20260505123904 53 160 2.6 6.1 0.00 0.00 0.00 61 1015.2
20260505123354 53 156 1.7 5.2 0.00 0.00 0.00 63 1015.3
20260505122846 53 157 2.6 7.0 0.00 0.00 0.00 62 1015.3
20260505122343 53 160 3.5 7.0 0.00 0.00 0.00 61 1015.4
20260505121832 53 147 4.3 7.8 0.00 0.00 0.00 61 1015.3
20260505121327 53 159 4.3 7.8 0.00 0.00 0.00 58 1015.3
20260505120820 54 146 2.6 5.2 0.00 0.00 0.00 58 1015.5
20260505120310 53 148 2.6 5.2 0.00 0.00 0.00 57 1015.5
20260505115805 53 147 3.5 7.0 0.00 0.00 0.00 55 1015.7
20260505115259 53 156 4.3 8.7 0.00 0.00 0.00 56 1015.7
20260505115019 53 138 3.5 9.6 0.00 0.00 0.00 58 1015.8
20260505114243 54 189 3.5 9.6 0.00 0.00 0.00 58 1015.9
20260505113737 54 140 4.3 8.7 0.00 0.00 0.00 55 1016.0
20260505113226 55 174 4.3 8.7 0.00 0.00 0.00 58 1016.1
20260505112721 55 167 2.6 7.0 0.00 0.00 0.00 54 1016.0
20260505112215 55 147 0.9 3.5 0.00 0.00 0.00 61 1015.8
20260505111705 55 326 0.9 3.5 0.00 0.00 0.00 62 1015.8
20260505111159 55 326 1.7 3.5 0.00 0.00 0.00 63 1015.9
20260505110652 55 310 1.7 5.2 0.00 0.00 0.00 63 1016.2
20260505110141 55 317 1.7 5.2 0.00 0.00 0.00 63 1016.1